User: anonymous   Login
Location: ???????
(55.9142°N, 37.8256°E)
Time: 18:02:33
(UTC+00:00)
Language:

Sich 1 - Orbit

View from above orbital plane
View from above orbital plane
View from above satellite
View from above satellite

Ground track
Ground track

The orbit data is extracted from the following two-line orbital elements,

1 23657U 95046A   24172.96280854  .00001874  00000-0  19134-3 0  9996
2 23657  82.5255  11.9000 0019043 231.6417 128.3092 14.89986535557958
Epoch (UTC): 20 June 2024 23:06:26
Eccentricity: 0.0019043
inclination: 82.5255°
perigee height: 584 km
apogee height: 611 km
right ascension of ascending node: 11.9000°
argument of perigee: 231.6417°
revolutions per day: 14.89986535
mean anomaly at epoch: 128.3092°
orbit number at epoch: 55795

The dashed part of the orbit path shows where the satellite is in the earth's shadow,  

DLR